Back to catalog

H-2A R/B

AliveGTO
NORAD 27369·ROCKET BODY·🇯🇵 Japan

Launched Feb 4, 2002 from Tanegashima Space Center

Loading…

TLE

StaleSource: Space-Track

Epoch: Sep 9, 2026, 06:59 UTC

1 27369U 02003C   26252.29112086 -.00000032  00000-0  00000-0 0  9994
2 27369  23.7516 114.8487 6892469 293.5051  10.8010  2.37189874212504

Track H-2A R/B in real time with AllMySat

Download on the App Store